• In Hungary
  • List of Countries
  • For 7 days
  • Water Temperature
  • Satellite Maps
  • Weather Map
  • News
  • Weather Widgets
  • user-avatar
    Login

    Hourly Weather Gurik

    Today, 16 July, Monday

    Time Temperature Precipitation Wind Pressure Humidity
    00:00 +23°C° 0 mm 2 mps 689 mmHg 71%
    01:00 +23°C° 0 mm 2 mps 689 mmHg 70%
    02:00 +21°C° 0 mm 2 mps 690 mmHg 69%
    03:00 +22°C° 0 mm 3 mps 690 mmHg 64%
    04:00 +22°C° 0 mm 3 mps 690 mmHg 65%
    05:00 +24°C° 0 mm 3 mps 690 mmHg 66%
    06:00 +24°C° 0 mm 3 mps 690 mmHg 67%
    07:00 +26°C° 0 mm 3 mps 691 mmHg 65%
    08:00 +27°C° 0 mm 4 mps 691 mmHg 63%
    09:00 +28°C° 0 mm 5 mps 691 mmHg 62%
    10:00 +28°C° 0.5 mm 5 mps 691 mmHg 64%
    11:00 +27°C° 0.5 mm 5 mps 691 mmHg 65%
    12:00 +27°C° 0.5 mm 5 mps 691 mmHg 67%
    13:00 +27°C° 1.2 mm 4 mps 691 mmHg 68%
    14:00 +26°C° 1.2 mm 4 mps 691 mmHg 71%
    15:00 +26°C° 1.2 mm 3 mps 691 mmHg 74%
    16:00 +25°C° 0.4 mm 3 mps 691 mmHg 75%
    17:00 +25°C° 0.4 mm 2 mps 691 mmHg 75%
    18:00 +24°C° 0.4 mm 2 mps 691 mmHg 76%
    19:00 +23°C° 0 mm 2 mps 691 mmHg 79%
    20:00 +21°C° 0 mm 2 mps 691 mmHg 81%
    21:00 +20°C° 0 mm 2 mps 691 mmHg 84%
    22:00 +20°C° 0 mm 2 mps 692 mmHg 81%
    23:00 +20°C° 0 mm 2 mps 692 mmHg 78%

    Tomorrow, 17 July, Tuesday

    Time Temperature Precipitation Wind Pressure Humidity
    00:00 +20°C° 0 mm 2 mps 692 mmHg 75%
    01:00 +20°C° 0 mm 2 mps 692 mmHg 73%
    02:00 +19°C° 0 mm 2 mps 692 mmHg 72%
    03:00 +19°C° 0 mm 2 mps 692 mmHg 70%
    04:00 +20°C° 0.1 mm 2 mps 693 mmHg 70%
    05:00 +20°C° 0.1 mm 2 mps 693 mmHg 70%
    06:00 +20°C° 0.1 mm 2 mps 693 mmHg 71%
    07:00 +23°C° 0 mm 2 mps 693 mmHg 66%
    08:00 +25°C° 0 mm 2 mps 693 mmHg 60%
    09:00 +26°C° 0 mm 2 mps 694 mmHg 55%
    10:00 +27°C° 0.1 mm 2 mps 694 mmHg 55%
    11:00 +28°C° 0.1 mm 3 mps 694 mmHg 54%
    12:00 +28°C° 0.1 mm 3 mps 693 mmHg 54%
    13:00 +28°C° 0.3 mm 3 mps 693 mmHg 56%
    14:00 +28°C° 0.3 mm 3 mps 693 mmHg 57%
    15:00 +28°C° 0.3 mm 4 mps 693 mmHg 59%
    16:00 +27°C° 0.6 mm 3 mps 692 mmHg 64%
    17:00 +26°C° 0.6 mm 3 mps 692 mmHg 69%
    18:00 +25°C° 0.6 mm 2 mps 692 mmHg 73%
    19:00 +24°C° 0.4 mm 2 mps 692 mmHg 77%
    20:00 +23°C° 0.4 mm 2 mps 693 mmHg 81%
    21:00 +20°C° 0.4 mm 2 mps 693 mmHg 85%
    22:00 +20°C° 0 mm 2 mps 693 mmHg 81%
    23:00 +20°C° 0 mm 2 mps 693 mmHg 78%

    Day after tomorrow, 18 July, Wednesday

    Time Temperature Precipitation Wind Pressure Humidity
    00:00 +20°C° 0 mm 2 mps 693 mmHg 74%
    01:00 +20°C° 0 mm 2 mps 693 mmHg 71%
    02:00 +20°C° 0 mm 2 mps 692 mmHg 68%
    03:00 +20°C° 0 mm 2 mps 692 mmHg 65%
    04:00 +21°C° 0 mm 1 mps 693 mmHg 64%
    05:00 +22°C° 0 mm 1 mps 693 mmHg 62%
    06:00 +23°C° 0 mm 1 mps 693 mmHg 61%
    07:00 +25°C° 0 mm 2 mps 693 mmHg 58%
    08:00 +26°C° 0 mm 2 mps 693 mmHg 56%
    09:00 +28°C° 0 mm 2 mps 693 mmHg 53%
    10:00 +29°C° 0 mm 3 mps 693 mmHg 53%
    11:00 +30°C° 0 mm 3 mps 693 mmHg 52%
    12:00 +30°C° 0 mm 4 mps 693 mmHg 51%
    13:00 +30°C° 0 mm 4 mps 693 mmHg 53%
    14:00 +30°C° 0 mm 4 mps 693 mmHg 55%
    15:00 +30°C° 0 mm 4 mps 692 mmHg 56%
    16:00 +29°C° 0 mm 3 mps 692 mmHg 60%
    17:00 +28°C° 0 mm 3 mps 692 mmHg 64%
    18:00 +28°C° 0 mm 2 mps 692 mmHg 67%
    19:00 +26°C° 0 mm 2 mps 692 mmHg 70%
    20:00 +25°C° 0 mm 1 mps 692 mmHg 72%
    21:00 +23°C° 0 mm 1 mps 692 mmHg 75%
    22:00 +23°C° 0 mm 1 mps 692 mmHg 70%
    23:00 +23°C° 0 mm 1 mps 692 mmHg 65%

    19 July, Thursday

    Time Temperature Precipitation Wind Pressure Humidity
    00:00 +23°C° 0 mm 2 mps 692 mmHg 60%
    01:00 +23°C° 0 mm 2 mps 692 mmHg 57%
    02:00 +23°C° 0 mm 2 mps 692 mmHg 54%
    03:00 +23°C° 0 mm 2 mps 692 mmHg 51%
    04:00 +24°C° 0 mm 2 mps 692 mmHg 51%
    05:00 +24°C° 0 mm 2 mps 692 mmHg 52%
    06:00 +25°C° 0 mm 2 mps 692 mmHg 53%
    07:00 +27°C° 0 mm 2 mps 692 mmHg 50%
    08:00 +29°C° 0 mm 2 mps 692 mmHg 47%
    09:00 +31°C° 0 mm 2 mps 692 mmHg 44%
    10:00 +32°C° 0 mm 2 mps 692 mmHg 44%
    11:00 +33°C° 0 mm 3 mps 692 mmHg 43%
    12:00 +34°C° 0 mm 3 mps 692 mmHg 43%
    13:00 +34°C° 0 mm 3 mps 692 mmHg 44%
    14:00 +34°C° 0 mm 3 mps 692 mmHg 45%
    15:00 +34°C° 0 mm 3 mps 691 mmHg 46%
    16:00 +32°C° 0 mm 2 mps 691 mmHg 50%
    17:00 +31°C° 0 mm 2 mps 691 mmHg 54%
    18:00 +30°C° 0 mm 1 mps 691 mmHg 58%
    19:00 +29°C° 0 mm 1 mps 691 mmHg 62%
    20:00 +27°C° 0 mm 1 mps 692 mmHg 66%
    21:00 +25°C° 0 mm 1 mps 692 mmHg 69%
    22:00 +25°C° 0 mm 2 mps 692 mmHg 66%
    23:00 +25°C° 0 mm 2 mps 692 mmHg 64%

    20 July, Friday

    Time Temperature Precipitation Wind Pressure Humidity
    00:00 +25°C° 0 mm 2 mps 692 mmHg 61%
    01:00 +25°C° 0 mm 2 mps 692 mmHg 59%
    02:00 +25°C° 0 mm 2 mps 691 mmHg 56%
    03:00 +25°C° 0 mm 2 mps 691 mmHg 53%
    04:00 +26°C° 0 mm 2 mps 692 mmHg 53%
    05:00 +26°C° 0 mm 2 mps 692 mmHg 54%
    06:00 +27°C° 0 mm 2 mps 692 mmHg 54%
    07:00 +29°C° 0 mm 2 mps 692 mmHg 50%
    08:00 +31°C° 0 mm 3 mps 692 mmHg 47%
    09:00 +34°C° 0 mm 3 mps 693 mmHg 43%
    10:00 +34°C° 0 mm 3 mps 692 mmHg 42%
    11:00 +35°C° 0 mm 4 mps 692 mmHg 42%
    12:00 +36°C° 0 mm 4 mps 692 mmHg 41%
    13:00 +35°C° 0 mm 4 mps 692 mmHg 43%
    14:00 +35°C° 0 mm 4 mps 692 mmHg 44%
    15:00 +35°C° 0 mm 4 mps 691 mmHg 46%
    16:00 +34°C° 0 mm 3 mps 691 mmHg 50%
    17:00 +32°C° 0 mm 2 mps 691 mmHg 54%
    18:00 +31°C° 0 mm 2 mps 691 mmHg 58%
    19:00 +29°C° 0 mm 2 mps 691 mmHg 61%
    20:00 +28°C° 0 mm 2 mps 691 mmHg 65%
    21:00 +26°C° 0 mm 2 mps 691 mmHg 69%
    22:00 +26°C° 0 mm 2 mps 691 mmHg 67%
    23:00 +26°C° 0 mm 2 mps 691 mmHg 66%

    21 July, Saturday

    Time Temperature Precipitation Wind Pressure Humidity
    00:00 +26°C° 0 mm 2 mps 691 mmHg 64%
    01:00 +26°C° 0 mm 3 mps 691 mmHg 62%
    02:00 +26°C° 0 mm 3 mps 691 mmHg 60%
    03:00 +26°C° 0 mm 3 mps 691 mmHg 59%
    04:00 +26°C° 0 mm 3 mps 691 mmHg 59%
    05:00 +27°C° 0 mm 3 mps 691 mmHg 59%
    06:00 +28°C° 0 mm 3 mps 691 mmHg 59%
    07:00 +30°C° 0 mm 3 mps 692 mmHg 54%
    08:00 +32°C° 0 mm 4 mps 692 mmHg 50%
    09:00 +34°C° 0 mm 4 mps 692 mmHg 45%
    10:00 +34°C° 0.1 mm 5 mps 692 mmHg 45%
    11:00 +35°C° 0.1 mm 5 mps 692 mmHg 45%
    12:00 +35°C° 0.1 mm 6 mps 692 mmHg 44%
    13:00 +35°C° 0.6 mm 6 mps 692 mmHg 46%
    14:00 +34°C° 0.6 mm 6 mps 692 mmHg 47%
    15:00 +34°C° 0.6 mm 5 mps 691 mmHg 49%
    16:00 +33°C° 0.3 mm 5 mps 691 mmHg 53%
    17:00 +32°C° 0.3 mm 4 mps 691 mmHg 56%
    18:00 +30°C° 0.3 mm 3 mps 691 mmHg 60%
    19:00 +28°C° 0.2 mm 3 mps 692 mmHg 64%
    20:00 +27°C° 0.2 mm 3 mps 692 mmHg 69%
    21:00 +25°C° 0.2 mm 2 mps 692 mmHg 73%
    22:00 +25°C° 0.2 mm 2 mps 692 mmHg 73%
    23:00 +25°C° 0.2 mm 2 mps 692 mmHg 73%
    Show more